| time (UTC) | temp F | wind direction | speed knots | gust knots | rain 1hr in | rain 24hr in | rain mn in | humidity % | barometer mb |
| 20260505200052 | 51 | 23 | 0.9 | 5.2 | 0.00 | 0.00 | 0.00 | 87 | |
| 20260505193052 | 50 | 338 | 1.7 | 5.2 | 0.00 | 0.00 | 0.00 | 89 | |
| 20260505190052 | 50 | 0 | 0.9 | 3.5 | 0.00 | 0.00 | 0.00 | 88 | |
| 20260505183052 | 50 | 0 | 1.7 | 3.5 | 0.00 | 0.00 | 0.00 | 88 | |
| 20260505180051 | 51 | 0 | 0.9 | 3.5 | 0.00 | 0.00 | 0.00 | 87 | |
| 20260505173051 | 50 | 248 | 0.9 | 4.3 | 0.00 | 0.00 | 0.00 | 86 | |
| 20260505170051 | 49 | 158 | 1.7 | 8.7 | 0.00 | 0.00 | 0.00 | 85 | |
| 20260505163051 | 49 | 203 | 1.7 | 6.1 | 0.00 | 0.00 | 0.00 | 91 | |
| 20260505153051 | 46 | 0.0 | 2.6 | 0.00 | 0.00 | 0.00 | 92 | ||
| 20260505130139 | 44 | 180 | 1.7 | 3.5 | 0.00 | 0.00 | 0.00 | 92 | |
| 20260505123051 | 44 | 225 | 1.7 | 4.3 | 0.00 | 0.00 | 0.00 | 93 | |
| 20260505120051 | 45 | 203 | 1.7 | 3.5 | 0.00 | 0.00 | 0.00 | 93 | |
| 20260505113050 | 45 | 225 | 1.7 | 3.5 | 0.00 | 0.00 | 0.00 | 93 | |
| 20260505110139 | 45 | 203 | 1.7 | 4.3 | 0.00 | 0.00 | 0.00 | 93 | |
| 20260505100050 | 46 | 203 | 1.7 | 2.6 | 0.00 | 0.00 | 0.00 | 92 | |
| 20260505093050 | 46 | 203 | 1.7 | 4.3 | 0.00 | 0.00 | 0.00 | 92 | |
| 20260505090050 | 46 | 225 | 1.7 | 4.3 | 0.00 | 0.00 | 0.00 | 92 | |
| 20260505083114 | 46 | 180 | 1.7 | 5.2 | 0.00 | 0.00 | 0.00 | 91 | |
| 20260505080114 | 46 | 180 | 1.7 | 4.3 | 0.00 | 0.00 | 0.00 | 91 | |
| 20260505073049 | 46 | 180 | 1.7 | 3.5 | 0.00 | 0.00 | 0.00 | 91 | |
| 20260505070050 | 46 | 180 | 1.7 | 4.3 | 0.00 | 0.00 | 0.01 | 91 | |
| 20260505063050 | 46 | 225 | 1.7 | 3.5 | 0.00 | 0.00 | 0.01 | 90 | |
| 20260505060050 | 47 | 203 | 1.7 | 6.1 | 0.00 | 0.00 | 0.01 | 89 | |
| 20260505053050 | 47 | 180 | 1.7 | 7.8 | 0.00 | 0.00 | 0.01 | 88 | |
| 20260505040050 | 49 | 225 | 1.7 | 6.1 | 0.00 | 0.00 | 0.01 | 85 | |
| 20260505033049 | 50 | 203 | 0.9 | 3.5 | 0.00 | 0.00 | 0.01 | 83 | |
| 20260505030049 | 51 | 0.0 | 0.9 | 0.00 | 0.00 | 0.01 | 80 | ||
| 20260505023113 | 52 | 0 | 0.9 | 3.5 | 0.00 | 0.00 | 0.01 | 77 | |
| 20260505020049 | 54 | 23 | 1.7 | 3.5 | 0.00 | 0.00 | 0.01 | 74 | |
| 20260505013049 | 54 | 23 | 1.7 | 7.0 | 0.00 | 0.00 | 0.01 | 73 | |
| 20260505010049 | 55 | 0 | 1.7 | 7.8 | 0.00 | 0.00 | 0.01 | 71 | |
| 20260505003049 | 56 | 0 | 2.6 | 10.4 | 0.00 | 0.00 | 0.01 | 70 | |
| 20260505000049 | 58 | 0 | 2.6 | 10.4 | 0.00 | 0.00 | 0.01 | 69 | |
| 20260504233049 | 56 | 338 | 3.5 | 9.6 | 0.00 | 0.00 | 0.01 | 71 | |
| 20260504230049 | 57 | 0 | 2.6 | 10.4 | 0.00 | 0.00 | 0.01 | 72 | |
| 20260504223050 | 60 | 23 | 2.6 | 7.8 | 0.00 | 0.00 | 0.01 | 67 | |
| 20260504220051 | 57 | 0 | 5.2 | 12.2 | 0.00 | 0.00 | 0.01 | 75 | |
| 20260504213051 | 56 | 0 | 4.3 | 11.3 | 0.00 | 0.00 | 0.01 | 78 | |
| 20260504210051 | 56 | 0 | 2.6 | 9.6 | 0.00 | 0.00 | 0.01 | 80 | |
| 20260504203051 | 54 | 338 | 2.6 | 9.6 | 0.00 | 0.00 | 0.01 | 84 |